Weather History for Hoonah, AK

Change the Weather History Date:

Thursday, May 2, 2013

  Actual Average Record
Temperature  
Mean Temperature 44 °F -  
Max Temperature 50 °F 50 °F 64 °F (2014)
Min Temperature 39 °F 32 °F 26 °F (2003)
Degree Days  
Heating Degree Days 20    
Moisture  
Dew Point 42 °F    
Average Humidity 90    
Maximum Humidity 100    
Minimum Humidity 74    
Precipitation  
Precipitation 0.01 in - - ()
Sea Level Pressure  
Sea Level Pressure 30.21 in    
Wind  
Wind Speed 3 mph (WNW)    
Max Wind Speed 10 mph    
Max Gust Speed 16 mph    
Visibility 9 miles    
Events Rain    
Averages and records for this station are not official NWS values.
T = Trace of Precipitation, MM = Missing Value Source: NWS Daily Summary

Daily Weather History Graph

Daily Weather History Graph

Search for Another Location

Airport:

Trip Planner

Search our weather history database for the weather conditions in past years. The results will help you decide how hot, cold, wet, or windy it might be!

Date:

Astronomy

May. 02, 2013 Rise Set
Actual Time 5:05 AM AKDT 8:53 PM AKDT
Civil Twilight 4:16 AM AKDT 9:43 PM AKDT
Nautical Twilight 3:04 AM AKDT 10:56 PM AKDT
Astronomical Twilight 1:31 AM AKDT 12:26 AM AKDT
Moon 2:33 AM AKDT (5/2) 12:20 PM AKDT (5/2)
Length of Visible Light 17h 27m
Length of Day
15h 48m
Last Quarter, 46% of the Moon is Illuminated
May 2
Last Quarter
May 9
New
May 17
First Quarter
May 24
Full
May 31
Last Quarter

Hourly Weather History & Observations

Time (AKDT) Temp. Windchill Dew Point Humidity Pressure Visibility Wind Dir Wind Speed Gust Speed Precip Events Conditions
12:56 AM 39.2 °F - 39.2 °F 100% 30.04 in 10.0 mi Calm Calm - N/A   Overcast
1:56 AM 39.9 °F - 39.9 °F 100% 30.06 in 7.0 mi Calm Calm - 0.00 in Rain Light Rain
2:10 AM 39.2 °F - 39.2 °F 100% 30.06 in 8.0 mi Calm Calm - 0.00 in Rain Light Rain
2:56 AM 39.9 °F - 39.9 °F 100% 30.07 in 6.0 mi Calm Calm - 0.01 in Rain Light Rain
3:43 AM 42.8 °F - 42.8 °F 100% 30.08 in 10.0 mi Calm Calm - 0.00 in   Overcast
3:56 AM 42.8 °F 41.1 °F 42.8 °F 100% 30.08 in 10.0 mi ESE 3.5 mph - N/A   Overcast
4:56 AM 39.9 °F - 39.9 °F 100% 30.10 in 10.0 mi Calm Calm - N/A   Mostly Cloudy
5:56 AM 39.9 °F - 39.9 °F 100% 30.10 in 10.0 mi Calm Calm - N/A   Mostly Cloudy
6:56 AM 39.2 °F - 39.2 °F 100% 30.11 in 10.0 mi Calm Calm - N/A   Mostly Cloudy
7:56 AM 41.9 °F - 41.9 °F 100% 30.13 in 10.0 mi Calm Calm - N/A   Mostly Cloudy
8:37 AM 44.6 °F 40.7 °F 42.8 °F 93% 30.14 in 1.8 mi NW 6.9 mph - 0.00 in Rain Light Rain
8:44 AM 44.6 °F 41.4 °F 44.6 °F 100% 30.14 in 4.0 mi NW 5.8 mph - 0.00 in Rain Light Rain
8:56 AM 45.0 °F 41.8 °F 43.9 °F 96% 30.16 in 6.0 mi Variable 5.8 mph - 0.00 in Rain Light Rain
9:56 AM 46.4 °F 45.2 °F 44.6 °F 93% 30.17 in 7.0 mi NNW 3.5 mph - N/A Rain Light Rain
10:56 AM 46.9 °F - 43.0 °F 86% 30.19 in 10.0 mi Calm Calm - 0.00 in   Overcast
11:56 AM 48.9 °F - 43.9 °F 83% 30.21 in 10.0 mi WSW 5.8 mph - 0.00 in Rain Light Rain
12:56 PM 50.0 °F - 44.6 °F 82% 30.23 in 8.0 mi West 6.9 mph - N/A Rain Light Rain
1:56 PM 50.0 °F - 43.9 °F 79% 30.26 in 10.0 mi West 10.4 mph - 0.00 in Rain Light Rain
2:56 PM 50.9 °F - 43.0 °F 74% 30.28 in 10.0 mi West 9.2 mph 16.1 mph 0.00 in Rain Light Rain
3:56 PM 50.0 °F - 43.9 °F 79% 30.30 in 10.0 mi West 6.9 mph - 0.00 in   Overcast
4:56 PM 48.9 °F - 43.0 °F 80% 30.32 in 10.0 mi Variable 6.9 mph - 0.00 in   Mostly Cloudy
5:56 PM 48.9 °F - 43.0 °F 80% 30.33 in 10.0 mi Variable 3.5 mph - N/A   Overcast
6:56 PM 48.2 °F - 42.8 °F 82% 30.35 in 10.0 mi West 9.2 mph - N/A   Overcast
7:56 PM 46.9 °F - 41.9 °F 83% 30.38 in 10.0 mi WSW 10.4 mph - 0.00 in Rain Light Rain
8:56 PM 45.0 °F 40.1 °F 41.9 °F 89% 30.40 in 10.0 mi WNW 9.2 mph - 0.00 in   Overcast
9:56 PM 45.0 °F 41.2 °F 41.0 °F 86% 30.42 in 10.0 mi NW 6.9 mph - N/A   Mostly Cloudy
10:56 PM 45.0 °F 40.6 °F 39.9 °F 82% 30.43 in 10.0 mi WNW 8.1 mph - N/A   Overcast
11:56 PM 45.0 °F 41.8 °F 41.0 °F 86% 30.44 in 10.0 mi NW 5.8 mph - 0.00 in Rain Light Rain